Location: Neuvy Saint Sepulchre
(46.5953°N, 1.8122°E)
Time: 22:10:33
(UTC+02:00)

ISS - Pass Details

Date: 02 April 2019
Orbit: 408 x 410 km, 51.6° (Epoch: 21 April)

Event Time Altitude Azimuth Distance (km) Brightness Sun altitude
Rises 22:30:35 0° 296° (WNW) 2,339 1.5 -21.3°
Reaches altitude 10° 22:32:41 10° 295° (WNW) 1,475 0.1 -21.6°
Enters shadow 22:35:22 55° 281° (WNW) 497 -3.2 -21.9°
